AWE1014 KBTV-KSYR

Flight info

Callsign AWE1014
Flight time 0h 47m
Altitude 20000
Route UUBER T705 LAMMS T608 SYR
Aircraft A321/M-SDE3FGHIRWY/LB1

Departure

Time 2026-05-05 22:29
Airport Patrick Leahy Burlington International Airport (KBTV)

Arrival

Time 2026-05-05 23:16
Airport Syracuse Hancock International Airport (KSYR)
Time Latitude Longitude Altitude Speed Heading
2026-05-05 22:08 44.47068 -73.15439 334 ft 0 kts 197°
2026-05-05 22:18 44.47073 -73.15437 333 ft 2 kts 197°
2026-05-05 22:18 44.47087 -73.15431 333 ft 2 kts 197°
2026-05-05 22:18 44.47102 -73.15425 333 ft 2 kts 197°
2026-05-05 22:19 44.47116 -73.15419 333 ft 2 kts 196°
2026-05-05 22:19 44.47126 -73.15415 333 ft 2 kts 197°
2026-05-05 22:19 44.47141 -73.15412 333 ft 2 kts 172°
2026-05-05 22:19 44.47156 -73.15417 333 ft 2 kts 155°
2026-05-05 22:20 44.47169 -73.15429 332 ft 2 kts 136°
2026-05-05 22:20 44.47174 -73.15437 332 ft 1 kts 128°
2026-05-05 22:20 44.47176 -73.15440 332 ft 0 kts 130°
2026-05-05 22:21 44.47170 -73.15430 332 ft 6 kts 130°
2026-05-05 22:22 44.47129 -73.15362 333 ft 9 kts 130°
2026-05-05 22:22 44.47086 -73.15292 334 ft 9 kts 132°
2026-05-05 22:22 44.47041 -73.15222 334 ft 9 kts 131°
2026-05-05 22:22 44.46995 -73.15150 335 ft 9 kts 136°
2026-05-05 22:23 44.46933 -73.15162 335 ft 10 kts 214°
2026-05-05 22:23 44.46907 -73.15220 335 ft 6 kts 259°
2026-05-05 22:23 44.46898 -73.15282 335 ft 6 kts 259°
2026-05-05 22:23 44.46927 -73.15337 335 ft 9 kts 348°
2026-05-05 22:24 44.46999 -73.15350 334 ft 10 kts 353°
2026-05-05 22:24 44.47079 -73.15364 334 ft 12 kts 353°
2026-05-05 22:24 44.47157 -73.15409 333 ft 13 kts 313°
2026-05-05 22:24 44.47219 -73.15510 331 ft 14 kts 310°
2026-05-05 22:25 44.47288 -73.15620 329 ft 16 kts 312°
2026-05-05 22:25 44.47366 -73.15745 326 ft 17 kts 310°
2026-05-05 22:25 44.47449 -73.15881 323 ft 19 kts 311°
2026-05-05 22:25 44.47537 -73.16024 319 ft 20 kts 311°
2026-05-05 22:26 44.47633 -73.16179 315 ft 21 kts 311°
2026-05-05 22:26 44.47732 -73.16340 312 ft 22 kts 311°
2026-05-05 22:26 44.47834 -73.16505 310 ft 22 kts 311°
2026-05-05 22:26 44.47926 -73.16653 309 ft 14 kts 313°
2026-05-05 22:27 44.48010 -73.16640 308 ft 14 kts 39°
2026-05-05 22:27 44.48045 -73.16571 307 ft 5 kts 108°
2026-05-05 22:27 44.48036 -73.16544 307 ft 0 kts 125°
2026-05-05 22:28 44.48020 -73.16513 307 ft 18 kts 128°
2026-05-05 22:28 44.47768 -73.16109 314 ft 90 kts 131°
2026-05-05 22:28 44.47216 -73.15215 333 ft 150 kts 130°
2026-05-05 22:28 44.46466 -73.13983 598 ft 175 kts 133°
2026-05-05 22:29 44.45659 -73.12681 1185 ft 179 kts 141°
2026-05-05 22:29 44.44594 -73.11907 1817 ft 172 kts 171°
2026-05-05 22:29 44.43433 -73.11553 2330 ft 178 kts 176°
2026-05-05 22:29 44.42161 -73.11223 2716 ft 194 kts 177°
2026-05-05 22:30 44.40788 -73.10864 3110 ft 210 kts 177°
2026-05-05 22:30 44.39273 -73.10541 3429 ft 228 kts 188°
2026-05-05 22:30 44.37754 -73.11166 3830 ft 233 kts 218°
2026-05-05 22:30 44.36717 -73.12867 4424 ft 238 kts 246°
2026-05-05 22:31 44.36227 -73.15032 5285 ft 238 kts 255°
2026-05-05 22:31 44.35945 -73.17313 6118 ft 242 kts 268°
2026-05-05 22:31 44.36214 -73.19612 6929 ft 246 kts 277°
2026-05-05 22:31 44.36558 -73.21941 7698 ft 249 kts 277°
2026-05-05 22:32 44.36892 -73.24308 8465 ft 251 kts 276°
2026-05-05 22:32 44.37220 -73.26700 9221 ft 253 kts 276°
2026-05-05 22:32 44.37540 -73.29095 9742 ft 254 kts 276°
2026-05-05 22:32 44.37863 -73.31545 10173 ft 259 kts 276°
2026-05-05 22:33 44.38184 -73.34056 10615 ft 272 kts 276°
2026-05-05 22:33 44.38521 -73.36697 10918 ft 288 kts 276°
2026-05-05 22:33 44.38885 -73.39544 11213 ft 304 kts 276°
2026-05-05 22:33 44.39264 -73.42516 11505 ft 320 kts 277°
2026-05-05 22:34 44.39661 -73.45624 11897 ft 331 kts 276°
2026-05-05 22:34 44.40065 -73.48792 12490 ft 335 kts 276°
2026-05-05 22:34 44.40475 -73.52034 13136 ft 338 kts 277°
2026-05-05 22:34 44.40880 -73.55241 13770 ft 341 kts 276°
2026-05-05 22:35 44.41292 -73.58512 14359 ft 344 kts 277°
2026-05-05 22:35 44.41710 -73.61819 14930 ft 347 kts 276°
2026-05-05 22:35 44.42125 -73.65132 15502 ft 350 kts 275°
2026-05-05 22:35 44.42403 -73.67381 15885 ft 352 kts 275°
2026-05-05 22:36 44.42828 -73.70789 16426 ft 356 kts 275°
2026-05-05 22:36 44.43251 -73.74205 16995 ft 359 kts 275°
2026-05-05 22:36 44.43678 -73.77649 17453 ft 364 kts 275°
2026-05-05 22:36 44.44109 -73.81149 17871 ft 369 kts 275°
2026-05-05 22:37 44.44540 -73.84674 18394 ft 372 kts 275°
2026-05-05 22:37 44.44982 -73.88281 18953 ft 374 kts 275°
2026-05-05 22:37 44.45420 -73.91859 19445 ft 375 kts 275°
2026-05-05 22:37 44.45852 -73.95419 19742 ft 378 kts 275°
2026-05-05 22:38 44.46039 -73.99052 19731 ft 372 kts 264°
2026-05-05 22:38 44.45667 -74.02576 19761 ft 367 kts 253°
2026-05-05 22:38 44.44383 -74.06989 19741 ft 365 kts 240°
2026-05-05 22:38 44.43020 -74.09966 19754 ft 365 kts 234°
2026-05-05 22:39 44.41983 -74.11810 19766 ft 366 kts 232°
2026-05-05 22:39 44.39820 -74.15454 19772 ft 364 kts 231°
2026-05-05 22:39 44.38728 -74.17283 19772 ft 364 kts 231°
2026-05-05 22:39 44.37129 -74.19971 19776 ft 363 kts 232°
2026-05-05 22:40 44.34972 -74.23626 19778 ft 365 kts 232°
2026-05-05 22:40 44.33383 -74.26324 19779 ft 364 kts 232°
2026-05-05 22:40 44.31778 -74.29059 19778 ft 362 kts 232°
2026-05-05 22:40 44.30719 -74.30862 19794 ft 363 kts 232°
2026-05-05 22:41 44.28587 -74.34497 19796 ft 365 kts 232°
2026-05-05 22:41 44.26988 -74.37215 19796 ft 364 kts 232°
2026-05-05 22:41 44.25373 -74.39968 19785 ft 364 kts 232°
2026-05-05 22:41 44.23788 -74.42660 19783 ft 364 kts 232°
2026-05-05 22:42 44.22169 -74.45417 19776 ft 365 kts 232°
2026-05-05 22:42 44.20570 -74.48136 19772 ft 364 kts 232°
2026-05-05 22:42 44.18973 -74.50845 19776 ft 365 kts 232°
2026-05-05 22:42 44.17350 -74.53599 19777 ft 365 kts 232°
2026-05-05 22:43 44.15746 -74.56313 19773 ft 363 kts 232°
2026-05-05 22:43 44.14143 -74.59032 19773 ft 365 kts 232°
2026-05-05 22:43 44.12536 -74.61750 19775 ft 365 kts 232°
2026-05-05 22:43 44.10931 -74.64459 19768 ft 366 kts 232°
2026-05-05 22:44 44.09316 -74.67194 19774 ft 365 kts 231°
2026-05-05 22:44 44.07693 -74.69926 19775 ft 366 kts 231°
2026-05-05 22:44 44.06076 -74.72654 19778 ft 364 kts 231°
2026-05-05 22:44 44.04486 -74.75333 19779 ft 365 kts 231°
2026-05-05 22:45 44.02863 -74.78060 19777 ft 365 kts 231°
2026-05-05 22:45 44.01257 -74.80760 19779 ft 365 kts 232°
2026-05-05 22:45 44.00160 -74.82601 19779 ft 364 kts 232°
2026-05-05 22:45 43.98021 -74.86192 19778 ft 364 kts 231°
2026-05-05 22:46 43.96944 -74.87999 19781 ft 363 kts 232°
2026-05-05 22:46 43.95339 -74.90686 19776 ft 363 kts 231°
2026-05-05 22:46 43.93732 -74.93374 19779 ft 363 kts 232°
2026-05-05 22:46 43.91567 -74.96987 19436 ft 363 kts 232°
2026-05-05 22:47 43.89930 -74.99722 19049 ft 360 kts 232°
2026-05-05 22:47 43.88866 -75.01502 18806 ft 359 kts 232°
2026-05-05 22:47 43.87276 -75.04149 18436 ft 356 kts 232°
2026-05-05 22:47 43.86744 -75.05036 18311 ft 356 kts 232°
2026-05-05 22:48 43.82285 -75.12461 17082 ft 349 kts 231°
2026-05-05 22:48 43.80741 -75.15025 16639 ft 347 kts 232°
2026-05-05 22:48 43.79187 -75.17604 16196 ft 346 kts 232°
2026-05-05 22:49 43.77646 -75.20159 15768 ft 344 kts 231°
2026-05-05 22:49 43.76113 -75.22699 15313 ft 343 kts 231°
2026-05-05 22:49 43.74582 -75.25232 14862 ft 341 kts 232°
2026-05-05 22:49 43.73065 -75.27740 14427 ft 338 kts 231°
2026-05-05 22:50 43.71553 -75.30233 13983 ft 336 kts 232°
2026-05-05 22:50 43.70047 -75.32725 13540 ft 334 kts 231°
2026-05-05 22:50 43.68581 -75.35140 13100 ft 333 kts 231°
2026-05-05 22:50 43.67084 -75.37605 12651 ft 330 kts 232°
2026-05-05 22:51 43.65590 -75.40065 12211 ft 328 kts 232°
2026-05-05 22:51 43.64103 -75.42507 11753 ft 325 kts 232°
2026-05-05 22:51 43.62669 -75.44867 11259 ft 322 kts 232°
2026-05-05 22:51 43.61232 -75.47227 10713 ft 321 kts 231°
2026-05-05 22:52 43.59796 -75.49586 10360 ft 313 kts 231°
2026-05-05 22:52 43.58406 -75.51862 10154 ft 301 kts 232°
2026-05-05 22:52 43.57084 -75.54027 9966 ft 291 kts 232°
2026-05-05 22:52 43.55800 -75.56130 9771 ft 281 kts 232°
2026-05-05 22:53 43.54569 -75.58143 9589 ft 271 kts 232°
2026-05-05 22:53 43.53370 -75.60104 9407 ft 262 kts 232°
2026-05-05 22:53 43.52213 -75.61996 9228 ft 253 kts 232°
2026-05-05 22:53 43.51292 -75.64015 9023 ft 245 kts 251°
2026-05-05 22:54 43.50969 -75.66351 8780 ft 244 kts 259°
2026-05-05 22:54 43.50732 -75.68671 8530 ft 245 kts 258°
2026-05-05 22:54 43.50462 -75.70991 8273 ft 244 kts 257°
2026-05-05 22:54 43.50183 -75.73341 8019 ft 244 kts 257°
2026-05-05 22:55 43.49912 -75.75622 7776 ft 242 kts 257°
2026-05-05 22:55 43.49646 -75.77881 7533 ft 242 kts 258°
2026-05-05 22:55 43.49370 -75.80183 7283 ft 242 kts 258°
2026-05-05 22:55 43.49091 -75.82505 7027 ft 241 kts 258°
2026-05-05 22:56 43.48819 -75.84791 6779 ft 240 kts 258°
2026-05-05 22:56 43.48546 -75.87049 6530 ft 241 kts 258°
2026-05-05 22:56 43.48269 -75.89342 6283 ft 241 kts 258°
2026-05-05 22:56 43.47990 -75.91617 6034 ft 241 kts 258°
2026-05-05 22:57 43.47706 -75.93881 5785 ft 241 kts 258°
2026-05-05 22:57 43.47413 -75.96164 5525 ft 241 kts 258°
2026-05-05 22:57 43.47111 -75.98432 5270 ft 241 kts 258°
2026-05-05 22:57 43.46799 -76.00700 5023 ft 242 kts 258°
2026-05-05 22:58 43.46474 -76.03001 4767 ft 243 kts 258°
2026-05-05 22:58 43.46140 -76.05297 4519 ft 242 kts 258°
2026-05-05 22:58 43.45804 -76.07531 4271 ft 242 kts 258°
2026-05-05 22:58 43.45453 -76.09818 4051 ft 242 kts 258°
2026-05-05 22:59 43.45096 -76.12079 4019 ft 242 kts 258°
2026-05-05 22:59 43.44733 -76.14354 4015 ft 243 kts 258°
2026-05-05 22:59 43.44369 -76.16653 4007 ft 243 kts 258°
2026-05-05 22:59 43.44012 -76.18914 4011 ft 244 kts 258°
2026-05-05 23:00 43.42468 -76.23032 4029 ft 248 kts 231°
2026-05-05 23:00 43.41283 -76.24731 4015 ft 248 kts 229°
2026-05-05 23:00 43.40058 -76.26427 4007 ft 248 kts 229°
2026-05-05 23:01 43.38842 -76.28107 4007 ft 248 kts 228°
2026-05-05 23:01 43.37617 -76.29798 4009 ft 248 kts 228°
2026-05-05 23:01 43.36392 -76.31503 4012 ft 248 kts 229°
2026-05-05 23:01 43.35164 -76.33215 4017 ft 248 kts 228°
2026-05-05 23:02 43.33964 -76.34895 4020 ft 248 kts 229°
2026-05-05 23:02 43.32756 -76.36584 4019 ft 247 kts 228°
2026-05-05 23:02 43.31538 -76.38285 4021 ft 248 kts 229°
2026-05-05 23:02 43.30327 -76.39974 4022 ft 248 kts 229°
2026-05-05 23:03 43.29110 -76.41672 4019 ft 248 kts 229°
2026-05-05 23:03 43.27908 -76.43352 4018 ft 248 kts 229°
2026-05-05 23:03 43.26690 -76.45052 4020 ft 249 kts 229°
2026-05-05 23:03 43.25493 -76.46726 4019 ft 247 kts 229°
2026-05-05 23:04 43.24280 -76.48422 4031 ft 248 kts 229°
2026-05-05 23:04 43.23062 -76.50123 4018 ft 248 kts 229°
2026-05-05 23:04 43.21863 -76.51799 4040 ft 247 kts 229°
2026-05-05 23:04 43.20653 -76.53487 4031 ft 248 kts 229°
2026-05-05 23:05 43.19397 -76.55122 4016 ft 249 kts 219°
2026-05-05 23:05 43.17721 -76.55870 4003 ft 261 kts 185°
2026-05-05 23:05 43.15928 -76.55263 4009 ft 271 kts 156°
2026-05-05 23:05 43.14498 -76.53550 4012 ft 281 kts 128°
2026-05-05 23:06 43.13800 -76.51080 4010 ft 287 kts 97°
2026-05-05 23:06 43.13909 -76.48341 4015 ft 288 kts 83°
2026-05-05 23:06 43.14168 -76.45619 4007 ft 288 kts 83°
2026-05-05 23:06 43.14413 -76.42909 4008 ft 288 kts 84°
2026-05-05 23:07 43.14638 -76.40186 4024 ft 287 kts 84°
2026-05-05 23:07 43.14848 -76.37451 4009 ft 287 kts 84°
2026-05-05 23:07 43.15049 -76.34711 4013 ft 288 kts 85°
2026-05-05 23:07 43.15242 -76.32021 4026 ft 287 kts 85°
2026-05-05 23:08 43.15432 -76.29334 4019 ft 273 kts 85°
2026-05-05 23:08 43.15610 -76.26811 4020 ft 258 kts 85°
2026-05-05 23:08 43.15780 -76.24404 4033 ft 254 kts 85°
2026-05-05 23:08 43.15960 -76.21990 4016 ft 254 kts 83°
2026-05-05 23:09 43.16258 -76.19588 4027 ft 255 kts 77°
2026-05-05 23:09 43.16700 -76.17252 4027 ft 255 kts 74°
2026-05-05 23:09 43.17187 -76.14936 4027 ft 255 kts 73°
2026-05-05 23:09 43.17688 -76.12589 4028 ft 254 kts 73°
2026-05-05 23:10 43.18177 -76.10273 4026 ft 254 kts 73°
2026-05-05 23:10 43.18663 -76.07955 4026 ft 253 kts 73°
2026-05-05 23:10 43.19134 -76.05693 4014 ft 241 kts 73°
2026-05-05 23:10 43.19590 -76.03503 4028 ft 236 kts 73°
2026-05-05 23:11 43.19902 -76.01413 3996 ft 219 kts 87°
2026-05-05 23:11 43.19711 -75.99412 3744 ft 205 kts 110°
2026-05-05 23:11 43.19092 -75.97750 3541 ft 187 kts 130°
2026-05-05 23:11 43.18231 -75.96550 3369 ft 170 kts 148°
2026-05-05 23:12 43.17207 -75.95760 3229 ft 164 kts 163°
2026-05-05 23:12 43.16110 -75.95377 2994 ft 162 kts 179°
2026-05-05 23:12 43.15022 -75.95382 2754 ft 155 kts 193°
2026-05-05 23:12 43.13979 -75.95749 2549 ft 154 kts 206°
2026-05-05 23:13 43.13052 -75.96423 2347 ft 151 kts 220°
2026-05-05 23:13 43.12269 -75.97378 2149 ft 146 kts 234°
2026-05-05 23:13 43.11707 -75.98479 1948 ft 139 kts 246°
2026-05-05 23:13 43.11344 -75.99699 1776 ft 138 kts 259°
2026-05-05 23:14 43.11187 -76.00983 1604 ft 138 kts 270°
2026-05-05 23:14 43.11139 -76.02318 1423 ft 139 kts 272°
2026-05-05 23:14 43.11101 -76.03643 1231 ft 139 kts 272°
2026-05-05 23:14 43.11055 -76.04990 1033 ft 138 kts 271°
2026-05-05 23:15 43.11006 -76.06293 830 ft 138 kts 271°
2026-05-05 23:15 43.10973 -76.07600 644 ft 137 kts 272°
2026-05-05 23:15 43.10934 -76.08907 466 ft 136 kts 271°
2026-05-05 23:15 43.10902 -76.10163 413 ft 116 kts 269°
2026-05-05 23:16 43.10876 -76.11033 421 ft 66 kts 266°
2026-05-05 23:16 43.10860 -76.11511 424 ft 41 kts 266°
2026-05-05 23:16 43.10858 -76.11768 425 ft 18 kts 295°
2026-05-05 23:16 43.10952 -76.11804 425 ft 10 kts 36°
2026-05-05 23:17 43.10974 -76.11712 425 ft 11 kts 86°
2026-05-05 23:17 43.10979 -76.11534 424 ft 23 kts 87°
2026-05-05 23:17 43.10987 -76.11317 423 ft 22 kts 87°
2026-05-05 23:17 43.11022 -76.11145 422 ft 16 kts 19°
2026-05-05 23:18 43.11137 -76.11142 422 ft 16 kts 15°
2026-05-05 23:18 43.11212 -76.11064 422 ft 11 kts 12°
2026-05-05 23:18 43.11250 -76.11064 422 ft 1 kts 357°
2026-05-05 23:18 43.11250 -76.11065 422 ft 0 kts 357°